Location: Chin
(49.7667°N, 112.4500°W)
Time: 10:19:43
(UTC+00:00)

Envisat - Pass Details

Date: 29 November 2021
Orbit: 764 x 766 km, 98.2° (Epoch: 24 January)

Event Time Altitude Azimuth Distance (km) Brightness Sun altitude
Rises 11:57:41 0° 20° (NNE) 3,247 6.5 -29.2°
Reaches altitude 10° 12:00:10 10° 28° (NNE) 2,315 5.8 -28.8°
Maximum altitude 12:04:54 38° 96° (E) 1,166 4.4 -28.0°
Drops below altitude 10° 12:09:36 10° 164° (SSE) 2,298 5.6 -27.2°
Sets 12:12:03 0° 173° (S) 3,219 6.3 -26.8°
